Olivia, MN

9:59 PM CDT on April 23, 2017 (GMT -0500)
Olivia Regional

Weather History for KOVL - August, 2013

Change the Weather History Date:

Monday, August 26, 2013

  Actual Average (KRWF) Record (KRWF)
Temperature  
Mean Temperature 82 °F -  
Max Temperature 91 °F 81 °F 99 °F (1976)
Min Temperature 73 °F 60 °F 44 °F (1934)
Cooling Degree Days 17    
Growing Degree Days 32 (Base 50)    
Moisture  
Dew Point 71 °F    
Average Humidity 71    
Maximum Humidity 94    
Minimum Humidity 52    
Precipitation  
Precipitation 0.00 in - - ()
Sea Level Pressure  
Sea Level Pressure 29.92 in    
Wind  
Wind Speed 6 mph (South)    
Max Wind Speed 13 mph    
Max Gust Speed 22 mph    
Visibility 10 miles    
Events      
Averages and records for this station are not official NWS values.
T = Trace of Precipitation, MM = Missing Value Source: NWS Daily Summary

Daily Weather History Graph

Daily Weather History Graph

Search for Another Location

Airport or City:

Trip Planner

Search our weather history database for the weather conditions in past years. The results will help you decide how hot, cold, wet, or windy it might be!

Date:

Astronomy

Aug. 26, 2013 Rise Set
Actual Time 6:35 AM CDT 8:07 PM CDT
Civil Twilight 6:04 AM CDT 8:37 PM CDT
Nautical Twilight 5:27 AM CDT 9:14 PM CDT
Astronomical Twilight 4:47 AM CDT 9:54 PM CDT
Moon 11:00 PM CDT (8/26) 12:55 PM CDT (8/26)
Length of Visible Light 14h 32m
Length of Day
13h 31m
Waning Gibbous, 66% of the Moon is Illuminated
Aug 26
Waning Gibbous
Aug 28
Last Quarter
Sep 5
New
Sep 12
First Quarter
Sep 19
Full

Hourly Weather History & Observations

Time (CDT) Temp. Heat Index Dew Point Humidity Pressure Visibility Wind Dir Wind Speed Gust Speed Precip Events Conditions
12:14 AM 78.8 °F - 73.4 °F 83% 29.97 in 10.0 mi South 6.9 mph - N/A   Clear
12:33 AM 77.0 °F - 71.6 °F 83% 29.97 in 10.0 mi South 5.8 mph - N/A   Clear
12:54 AM 77.0 °F - 71.6 °F 83% 29.97 in 10.0 mi South 6.9 mph - N/A   Clear
1:13 AM 77.0 °F - 71.6 °F 83% 29.97 in 10.0 mi South 5.8 mph - N/A   Clear
1:34 AM 77.0 °F - 71.6 °F 83% 29.97 in 10.0 mi South 5.8 mph - N/A   Clear
1:54 AM 77.0 °F - 71.6 °F 83% 29.96 in 10.0 mi South 3.5 mph - N/A   Clear
2:14 AM 77.0 °F - 71.6 °F 83% 29.96 in 10.0 mi South 4.6 mph - N/A   Clear
2:33 AM 77.0 °F - 71.6 °F 83% 29.96 in 10.0 mi South 6.9 mph - N/A   Clear
2:54 AM 77.0 °F - 71.6 °F 83% 29.96 in 10.0 mi South 5.8 mph - N/A   Clear
3:14 AM 77.0 °F - 71.6 °F 83% 29.96 in 10.0 mi South 6.9 mph - N/A   Clear
3:33 AM 77.0 °F - 71.6 °F 83% 29.96 in 10.0 mi SSW 5.8 mph - N/A   Clear
3:54 AM 77.0 °F - 71.6 °F 83% 29.96 in 10.0 mi SSW 4.6 mph - N/A   Clear
4:14 AM 75.2 °F - 69.8 °F 83% 29.95 in 10.0 mi SSW 5.8 mph - N/A   Clear
4:33 AM 73.4 °F - 69.8 °F 88% 29.96 in 10.0 mi SSW 3.5 mph - N/A   Clear
4:53 AM 73.4 °F - 69.8 °F 88% 29.96 in 10.0 mi Calm Calm - N/A   Clear
5:14 AM 73.4 °F - 69.8 °F 88% 29.96 in 10.0 mi Calm Calm - N/A   Clear
5:33 AM 73.4 °F - 69.8 °F 88% 29.96 in 7.0 mi Calm Calm - N/A   Clear
5:53 AM 73.4 °F - 69.8 °F 88% 29.96 in 10.0 mi Calm Calm - N/A   Clear
6:14 AM 73.4 °F - 69.8 °F 88% 29.96 in 10.0 mi Calm Calm - N/A   Clear
6:33 AM 73.4 °F - 71.6 °F 94% 29.96 in 7.0 mi Calm Calm - N/A   Clear
6:53 AM 73.4 °F - 69.8 °F 88% 29.97 in 7.0 mi SSE 3.5 mph - N/A   Clear
7:14 AM 73.4 °F - 69.8 °F 88% 29.97 in 7.0 mi SSE 5.8 mph - N/A   Clear
7:33 AM 73.4 °F - 69.8 °F 88% 29.97 in 7.0 mi Calm Calm - N/A   Clear
7:53 AM 73.4 °F - 69.8 °F 88% 29.97 in 10.0 mi SSE 4.6 mph - N/A   Clear
8:14 AM 77.0 °F - 71.6 °F 83% 29.97 in 10.0 mi SE 3.5 mph - N/A   Clear
8:34 AM 78.8 °F - 71.6 °F 78% 29.97 in 7.0 mi South 4.6 mph - N/A   Clear
8:53 AM 78.8 °F - 71.6 °F 78% 29.97 in 10.0 mi Calm Calm - N/A   Clear
9:14 AM 80.6 °F 83.9 °F 69.8 °F 70% 29.96 in 10.0 mi South 3.5 mph - N/A   Clear
9:33 AM 80.6 °F 83.9 °F 69.8 °F 70% 29.96 in 10.0 mi South 4.6 mph - N/A   Clear
9:54 AM 82.4 °F 86.3 °F 69.8 °F 66% 29.96 in 10.0 mi South 5.8 mph - N/A   Clear
10:14 AM 82.4 °F 86.3 °F 69.8 °F 66% 29.96 in 10.0 mi South 8.1 mph - N/A   Clear
10:34 AM 82.4 °F 86.3 °F 69.8 °F 66% 29.96 in 10.0 mi South 5.8 mph - N/A   Clear
10:53 AM 84.2 °F 88.4 °F 69.8 °F 62% 29.96 in 10.0 mi South 6.9 mph - N/A   Clear
11:14 AM 86.0 °F 91.8 °F 71.6 °F 62% 29.96 in 10.0 mi SSW 5.8 mph - N/A   Clear
11:34 AM 87.8 °F 93.8 °F 71.6 °F 58% 29.95 in 10.0 mi SSW 8.1 mph - N/A   Clear
11:53 AM 87.8 °F 93.8 °F 71.6 °F 58% 29.95 in 10.0 mi South 6.9 mph - N/A   Clear
12:13 PM 89.6 °F 96.2 °F 71.6 °F 55% 29.95 in 10.0 mi South 5.8 mph - N/A   Clear
12:33 PM 89.6 °F 96.2 °F 71.6 °F 55% 29.94 in 10.0 mi South 6.9 mph - N/A   Clear
12:54 PM 89.6 °F 96.2 °F 71.6 °F 55% 29.93 in 10.0 mi SSE 10.4 mph - N/A   Clear
1:14 PM 89.6 °F 96.2 °F 71.6 °F 55% 29.92 in 10.0 mi South 9.2 mph 16.1 mph N/A   Clear
1:33 PM 89.6 °F 96.2 °F 71.6 °F 55% 29.92 in 10.0 mi South 11.5 mph 17.3 mph N/A   Clear
1:54 PM 89.6 °F 96.2 °F 71.6 °F 55% 29.92 in 10.0 mi SSE 10.4 mph - N/A   Clear
2:13 PM 89.6 °F 96.2 °F 71.6 °F 55% 29.91 in 10.0 mi SSE 11.5 mph - N/A   Clear
2:33 PM 89.6 °F 94.7 °F 69.8 °F 52% 29.90 in 10.0 mi South 12.7 mph 18.4 mph N/A   Clear
2:54 PM 91.4 °F 98.4 °F 71.6 °F 52% 29.90 in 10.0 mi South 11.5 mph 16.1 mph N/A   Clear
3:13 PM 91.4 °F 98.4 °F 71.6 °F 52% 29.89 in 10.0 mi South 12.7 mph 16.1 mph N/A   Clear
3:34 PM 91.4 °F 100.1 °F 73.4 °F 55% 29.89 in 10.0 mi South 10.4 mph 19.6 mph N/A   Clear
3:53 PM 91.4 °F 98.4 °F 71.6 °F 52% 29.88 in 10.0 mi South 12.7 mph 19.6 mph N/A   Clear
4:13 PM 91.4 °F 98.4 °F 71.6 °F 52% 29.88 in 10.0 mi South 12.7 mph 18.4 mph N/A   Clear
4:34 PM 91.4 °F 100.1 °F 73.4 °F 55% 29.87 in 10.0 mi South 11.5 mph - N/A   Clear
4:53 PM 89.6 °F 98.2 °F 73.4 °F 59% 29.87 in 10.0 mi South 9.2 mph - N/A   Clear
5:13 PM 89.6 °F 98.2 °F 73.4 °F 59% 29.87 in 10.0 mi South 9.2 mph - N/A   Clear
5:34 PM 89.6 °F 96.2 °F 71.6 °F 55% 29.86 in 10.0 mi South 10.4 mph 17.3 mph N/A   Clear
5:53 PM 89.6 °F 96.2 °F 71.6 °F 55% 29.85 in 10.0 mi South 10.4 mph 17.3 mph N/A   Clear
6:14 PM 89.6 °F 98.2 °F 73.4 °F 59% 29.84 in 10.0 mi SSW 12.7 mph 16.1 mph N/A   Clear
6:33 PM 89.6 °F 98.2 °F 73.4 °F 59% 29.84 in 10.0 mi SSW 12.7 mph 21.9 mph N/A   Clear
6:54 PM 89.6 °F 98.2 °F 73.4 °F 59% 29.83 in 10.0 mi SSW 11.5 mph - N/A   Clear
7:14 PM 89.6 °F 98.2 °F 73.4 °F 59% 29.83 in 10.0 mi SSW 11.5 mph 18.4 mph N/A   Clear
7:33 PM 89.6 °F 99.8 °F 75.2 °F 62% 29.83 in 10.0 mi SSW 12.7 mph 18.4 mph N/A   Clear
7:54 PM 87.8 °F 95.6 °F 73.4 °F 62% 29.84 in 10.0 mi SSW 11.5 mph - N/A   Clear
8:13 PM 86.0 °F 91.8 °F 71.6 °F 62% 29.84 in 10.0 mi South 9.2 mph - N/A   Clear
8:34 PM 82.4 °F 87.2 °F 71.6 °F 70% 29.84 in 10.0 mi South 10.4 mph - N/A   Clear
8:53 PM 82.4 °F 87.2 °F 71.6 °F 70% 29.84 in 10.0 mi SSW 9.2 mph - N/A   Clear
9:14 PM 82.4 °F 87.2 °F 71.6 °F 70% 29.85 in 10.0 mi SSW 10.4 mph - N/A   Clear
9:33 PM 80.6 °F 84.6 °F 71.6 °F 74% 29.85 in 10.0 mi SSW 6.9 mph - N/A   Clear
9:54 PM 80.6 °F 84.6 °F 71.6 °F 74% 29.86 in 10.0 mi SSW 4.6 mph - N/A   Clear
10:13 PM 78.8 °F - 71.6 °F 78% 29.86 in 10.0 mi South 3.5 mph - N/A   Clear
10:34 PM 78.8 °F - 71.6 °F 78% 29.85 in 10.0 mi SSE 3.5 mph - N/A   Clear
10:53 PM 78.8 °F - 73.4 °F 83% 29.84 in 10.0 mi SSE 3.5 mph - N/A   Clear
11:14 PM 78.8 °F - 71.6 °F 78% 29.85 in 10.0 mi ESE 3.5 mph - N/A   Clear
11:33 PM 77.0 °F - 71.6 °F 83% 29.85 in 10.0 mi SE 3.5 mph - N/A   Clear
11:54 PM 77.0 °F - 71.6 °F 83% 29.84 in 10.0 mi SE 4.6 mph - N/A   Clear